Location: Unspecified
(42.9300°N, 71.1866°W)
Time: 09:51:54
(UTC-04:00)

Cosmos 2058 - Visible Passes

Search period start: 01 August 2015 00:00
Search period end: 11 August 2015 00:00
Orbit: 565 x 590 km, 82.5° (Epoch: 31 July)

Date Brightness Start Highest point End Pass type
(mag) Time Alt. Az. Time Alt. Az. Time Alt. Az.
01 Aug 4.0 03:35:09 10° N 03:39:06 43° ENE 03:43:04 10° SSE visible
02 Aug 3.4 03:39:19 10° N 03:43:25 61° E 03:47:27 10° SSE visible
03 Aug 2.9 03:43:33 10° N 03:47:42 84° E 03:50:51 17° S visible
04 Aug 6.0 02:14:08 10° ENE 02:14:21 10° ENE 02:14:48 10° ENE visible
04 Aug 2.8 03:47:50 10° NNW 03:51:58 70° W 03:54:20 24° S visible
05 Aug 5.7 02:16:46 10° NE 02:18:49 14° ENE 02:21:02 10° E visible
05 Aug 3.1 03:52:12 10° NNW 03:56:13 50° W 03:57:54 30° SSW visible
06 Aug 5.3 02:20:24 10° NNE 02:23:14 18° ENE 02:25:17 14° ESE visible
06 Aug 3.5 03:56:37 10° NNW 04:00:27 36° W 04:01:31 30° SW visible
07 Aug 4.9 02:24:17 10° NNE 02:27:38 24° ENE 02:28:57 21° E visible
07 Aug 3.9 04:01:07 10° NNW 04:04:39 27° W 04:05:12 26° WSW visible
08 Aug 4.4 02:28:16 10° NNE 02:32:00 32° ENE 02:32:40 30° E visible
08 Aug 4.4 04:05:45 10° NW 04:08:51 20° W 04:08:56 20° W visible
09 Aug 3.8 02:32:22 10° N 02:36:20 43° ENE 02:36:26 43° E visible
09 Aug 4.8 04:10:33 10° NW 04:12:41 15° W 04:12:41 15° W visible
10 Aug 3.5 02:36:31 10° N 02:40:14 56° NE 02:40:14 56° NE visible
10 Aug 5.1 04:15:53 10° WNW 04:16:29 11° WNW 04:16:29 11° WNW visible
